Voltar ao catálogo

COSMOS 764

AtivoMilitarLEO
NORAD 8288·PAYLOAD·🇷🇺 Russia

Lançado Sep 17, 1975 de Plesetsk Cosmodrome

Loading…

Próximas Passagens (próximas 24 horas)

TLE

AtualizadoSource: Space-Track

Época: Sep 14, 2026, 09:24 UTC

1 08288U 75086D   26257.39178427 -.00000024  00000-0 -66703-4 0  9999
2 08288  74.0072 225.4241 0029357 123.4666 310.9517 12.41091762310319

Acompanhe COSMOS 764 em tempo real com AllMySat

Download on the App Store